[TLELIST] Archives

 

Current TLEs

October 17th 2006 PDT

HST 1 20580U 90037B 06288.58592220 +.00000485 +00000-0 +24951-4 0 07418 2 20580 028.4695 344.9841 0003506 025.3844 334.6918 15.00110162703195 ISS (ZARYA) 1 25544U 98067A 06290.43321329 .00069281 00000-0 41660-3 0 8775 2 25544 051.6287 277.6576 0012724 105.7169 049.9060 15.76970725452442 CXO 1 25867U 99040B 06289.37500000 +.00000327 +00000-0 +00000-0 0 09891 2 25867 060.4376 094.3870 5918950 288.5666 356.9117 00.37803563001339 ____________________________________________________________________ These 2-Line ...Continue Reading

Current TLEs

October 16th 2006 PDT

HST 1 20580U 90037B 06289.25123277 .00000488 00000-0 25201-4 0 7204 2 20580 028.4695 340.6479 0003476 032.2460 327.8342 15.00110622703299 ISS (ZARYA) 1 25544U 98067A 06289.47959089 .00060576 00000-0 36541-3 0 8698 2 25544 051.6345 282.5697 0012785 101.6513 036.6504 15.76952697452298 CXO 1 25867U 99040B 06286.70833333 +.00000265 +00000-0 +00000-0 0 09883 2 25867 060.4275 094.4342 5916446 288.6471 353.8155 00.37800847001324 ____________________________________________________________________ These 2-Line ...Continue Reading

Current TLEs

October 15th 2006 PDT

HST 1 20580U 90037B 06287.58795569 .00000484 00000-0 24877-4 0 7199 2 20580 028.4692 351.4893 0003527 014.3152 345.7540 15.00109520703049 ISS (ZARYA) 1 25544U 98067A 06288.46528002 .00009845 00000-0 63295-4 0 8647 2 25544 051.6348 287.7957 0013213 098.2626 038.0083 15.76897941452131 CXO 1 25867U 99040B 06286.70833333 +.00000265 +00000-0 +00000-0 0 09883 2 25867 060.4275 094.4342 5916446 288.6471 353.8155 00.37800847001324 ____________________________________________________________________ These 2-Line ...Continue Reading

Current TLEs

October 14th 2006 PDT

HST 1 20580U 90037B 06286.52345757 .00000472 00000-0 23951-4 0 7180 2 20580 028.4691 358.4275 0003561 002.7786 357.2822 15.00108727702881 ISS (ZARYA) 1 25544U 98067A 06287.45436201 .00007966 00000-0 52071-4 0 8589 2 25544 051.6355 293.0101 0013178 095.0487 058.5539 15.76870229451974 CXO 1 25867U 99040B 06286.70833333 +.00000265 +00000-0 +00000-0 0 09883 2 25867 060.4275 094.4342 5916446 288.6471 353.8155 00.37800847001324 ____________________________________________________________________ These 2-Line ...Continue Reading

Current TLEs

October 13th 2006 PDT

HST 1 20580U 90037B 06285.59202109 +.00000470 +00000-0 +23803-4 0 07262 2 20580 028.4690 004.4988 0003547 351.8953 008.1579 15.00108124702744 ISS (ZARYA) 1 25544U 98067A 06286.43963706 .00006989 00000-0 46236-4 0 8525 2 25544 051.6351 298.2461 0013207 091.6940 057.7185 15.76850226451811 CXO 1 25867U 99040B 06286.70833333 +.00000265 +00000-0 +00000-0 0 09883 2 25867 060.4275 094.4342 5916446 288.6471 353.8155 00.37800847001324 ____________________________________________________________________ These 2-Line ...Continue Reading

Current TLEs

October 12th 2006 PDT

HST 1 20580U 90037B 06284.59405361 +.00000478 +00000-0 +24411-4 0 07327 2 20580 028.4681 011.0095 0003502 338.1279 021.9165 15.00107549702594 ISS (ZARYA) 1 25544U 98067A 06285.48979659 .00004568 00000-0 31676-4 0 8458 2 25544 051.6361 303.1440 0013201 088.4760 065.3897 15.76831973451669 CXO 1 25867U 99040B 06284.08333333 +.00000267 +00000-0 +00000-0 0 09878 2 25867 060.4105 094.4843 5916077 288.7224 356.3961 00.37802461001315 ____________________________________________________________________ These 2-Line ...Continue Reading

Current TLEs

October 11th 2006 PDT

HST 1 20580U 90037B 06283.59608518 .00000495 00000-0 25718-4 0 7167 2 20580 028.4680 017.5152 0003521 326.6500 033.3867 15.00107023702445 ISS (ZARYA) 1 25544U 98067A 06284.47508898 .00019914 00000-0 12415-3 0 8381 2 25544 051.6364 308.3745 0013302 084.0334 065.8560 15.76811622451502 CXO 1 25867U 99040B 06284.08333333 +.00000267 +00000-0 +00000-0 0 09878 2 25867 060.4105 094.4843 5916077 288.7224 356.3961 00.37802461001315 ____________________________________________________________________ These 2-Line ...Continue Reading

Current TLEs

October 10th 2006 PDT

HST 1 20580U 90037B 06281.66667911 +.00000487 +00000-0 +25100-4 0 07385 2 20580 028.4674 030.0937 0003670 303.3150 056.7086 15.00105639702158 ISS (ZARYA) 1 25544U 98067A 06283.13516091 .00018238 00000-0 11437-3 0 8300 2 25544 051.6371 315.2854 0013302 079.0641 019.6741 15.76750912451291 CXO 1 25867U 99040B 06281.45833333 +.00000343 +00000-0 +00000-0 0 09865 2 25867 060.3858 094.5556 5916844 288.7535 359.0513 00.37808274001308 ____________________________________________________________________ These 2-Line ...Continue Reading

Current TLEs

October 9th 2006 PDT

HST 1 20580U 90037B 06280.66870988 .00000479 00000-0 24447-4 0 7142 2 20580 028.4674 036.5988 0003799 290.8971 069.1212 15.00104919702001 ISS (ZARYA) 1 25544U 98067A 06282.45690972 .00016292 00000-0 10277-3 0 8247 2 25544 051.6358 318.7857 0013111 076.8455 129.3549 15.76722217451183 CXO 1 25867U 99040B 06281.45833333 +.00000343 +00000-0 +00000-0 0 09865 2 25867 060.3858 094.5556 5916844 288.7535 359.0513 00.37808274001308 ____________________________________________________________________ These 2-Line ...Continue Reading

Current TLEs

October 8th 2006 PDT

HST 1 20580U 90037B 06280.66870988 .00000479 00000-0 24447-4 0 7142 2 20580 028.4674 036.5988 0003799 290.8971 069.1212 15.00104919702001 ISS (ZARYA) 1 25544U 98067A 06281.48392575 .00011403 00000-0 73354-4 0 8185 2 25544 051.6362 323.8031 0013187 073.3916 006.2694 15.76676522451031 CXO 1 25867U 99040B 06278.79166667 +.00000420 +00000-0 +00000-0 0 09852 2 25867 060.3560 094.6359 5914486 288.7496 356.1191 00.37809647001299 ____________________________________________________________________ These 2-Line ...Continue Reading
  • This mailing list is a public mailing list - anyone may join or leave, at any time.
  • This mailing list is announce-only.

International Space Station (ISS) / Hubble Space Telescope (HST) / Chandra X-Ray Observatory Orbital Data via EMAIL

Privacy Policy:

Private list